N0ZMJ-4 Weather Reports


Display with metric or nautical units.
time (UTC)temp
F
wind
direction
speed
MPH
gust
MPH
rain 1hr
in
rain 24hr
in
rain mn
in
humidity
%
barometer
mb
20260902031502 66 8 0.0 3.0 0.00 0.02 0.02 100 1011.5
20260902031003 66 9 2.0 3.0 0.00 0.02 0.02 100 1011.4
20260902030502 66 339 0.0 4.0 0.00 0.02 0.02 100 1011.7
20260902030003 66 344 2.0 4.0 0.01 0.02 0.02 100 1011.8
20260902025503 66 360 0.0 3.0 0.01 0.02 0.02 100 1011.9
20260902025003 67 360 1.0 3.0 0.01 0.02 0.02 100 1011.8
20260902024503 67 47 1.0 4.0 0.01 0.02 0.02 99 1011.3
20260902024003 67 51 2.0 8.0 0.01 0.02 0.02 99 1011.2
20260902023502 67 95 4.0 8.0 0.01 0.02 0.02 99 1011.0
20260902023003 67 103 4.0 7.0 0.01 0.02 0.02 100 1011.2
20260902022502 67 94 3.0 8.0 0.01 0.02 0.02 100 1011.3
20260902022003 67 94 5.0 8.0 0.01 0.02 0.02 100 1011.5
20260902021502 67 82 3.0 6.0 0.01 0.02 0.02 100 1011.8
20260902021003 67 66 1.0 2.0 0.00 0.01 0.01 100 1012.1
20260902020503 67 66 0.0 1.0 0.00 0.01 0.01 100 1012.1
20260902020003 67 66 0.0 2.0 0.01 0.01 0.01 100 1011.6
20260902015503 67 66 1.0 2.0 0.01 0.01 0.01 100 1011.7
20260902015003 67 66 1.0 2.0 0.01 0.01 0.01 100 1011.6
20260902014503 67 66 0.0 1.0 0.00 0.00 0.00 100 1011.8
20260902014002 67 66 0.0 1.0 0.00 0.00 0.00 100 1011.9
20260902013503 67 66 0.0 2.0 0.00 0.00 0.00 100 1011.4
20260902013002 68 66 1.0 4.0 0.00 0.00 0.00 100 1010.9
20260902012503 68 67 2.0 4.0 0.00 0.00 0.00 100 1010.7
20260902012002 68 67 1.0 2.0 0.00 0.00 0.00 99 1010.9
20260902011503 68 67 0.0 2.0 0.00 0.00 0.00 99 1011.3
20260902011002 68 67 0.0 2.0 0.00 0.00 0.00 98 1011.7
20260902010503 69 67 0.0 1.0 0.00 0.00 0.00 98 1011.5
20260902010003 69 67 0.0 0.0 0.00 0.00 0.00 97 1011.6
20260902005503 69 67 0.0 2.0 0.00 0.00 0.00 97 1011.4
20260902005003 69 67 0.0 4.0 0.00 0.00 0.00 97 1011.1
20260902004502 69 67 1.0 8.0 0.00 0.00 0.00 96 1011.2
20260902004003 69 91 4.0 8.0 0.00 0.00 0.00 96 1011.3
20260902003502 69 97 5.0 7.0 0.00 0.00 0.00 96 1011.4
20260902003003 69 97 2.0 3.0 0.00 0.00 0.00 96 1012.1
20260902002502 69 109 0.0 2.0 0.00 0.00 0.00 96 1012.7
20260902002003 69 109 0.0 2.0 0.00 0.00 0.00 96 1013.1
20260902001503 70 108 1.0 4.0 0.00 0.00 0.00 94 1013.0
20260902001003 70 78 2.0 4.0 0.00 0.00 0.00 94 1012.3
20260902000503 70 51 0.0 3.0 0.00 0.00 0.00 94 1012.1
20260902000003 70 51 1.0 3.0 0.00 0.00 0.00 94 1011.7
20260901235503 71 51 1.0 3.0 0.00 0.00 0.00 93 1011.6
20260901235003 71 51 1.0 3.0 0.00 0.00 0.00 93 1011.9
20260901234502 71 51 2.0 4.0 0.00 0.00 0.00 92 1012.0
20260901234003 71 50 2.0 6.0 0.00 0.00 0.00 91 1012.0
20260901233502 71 87 2.0 6.0 0.00 0.00 0.00 91 1012.1
20260901233003 71 67 3.0 5.0 0.00 0.00 0.00 91 1012.2
20260901232502 72 40 1.0 5.0 0.00 0.00 0.00 90 1012.4
20260901232003 72 37 1.0 3.0 0.00 0.00 0.00 89 1012.3
20260901231503 72 37 1.0 3.0 0.00 0.00 0.00 88 1012.5
20260901231003 72 37 1.0 2.0 0.00 0.00 0.00 88 1012.8
20260901230502 72 37 0.0 2.0 0.00 0.00 0.00 88 1012.9
20260901230003 72 38 0.0 2.0 0.00 0.00 0.00 86 1013.2
20260901225502 73 38 0.0 2.0 0.00 0.00 0.00 84 1013.2
20260901225003 73 38 0.0 2.0 0.00 0.00 0.00 84 1013.1
20260901224502 73 37 0.0 3.0 0.00 0.00 0.00 83 1012.9
20260901224003 74 38 0.0 3.0 0.00 0.00 0.00 83 1012.8
20260901223503 74 37 2.0 4.0 0.00 0.00 0.00 83 1012.6
20260901223003 74 37 2.0 4.0 0.00 0.00 0.00 83 1012.6
20260901222503 74 18 1.0 4.0 0.00 0.00 0.00 84 1012.6
20260901222003 74 16 1.0 3.0 0.00 0.00 0.00 86 1012.5
20260901221503 74 16 1.0 4.0 0.00 0.00 0.00 86 1012.6
20260901221003 74 25 2.0 4.0 0.00 0.00 0.00 86 1012.4
20260901220503 74 11 1.0 5.0 0.00 0.00 0.00 86 1012.6
20260901220003 74 343 1.0 6.0 0.00 0.00 0.00 87 1012.7
20260901215503 74 356 2.0 6.0 0.00 0.00 0.00 86 1012.8
20260901215002 75 360 1.0 4.0 0.00 0.00 0.00 85 1012.9
20260901214503 75 356 1.0 4.0 0.00 0.00 0.00 85 1012.9
20260901214003 75 2 2.0 5.0 0.00 0.00 0.00 82 1012.9
20260901213503 75 88 3.0 5.0 0.00 0.00 0.00 83 1012.7
20260901213002 75 88 1.0 4.0 0.00 0.00 0.00 83 1012.7
20260901212503 75 87 2.0 4.0 0.00 0.00 0.00 83 1012.8
20260901212003 75 87 1.0 4.0 0.00 0.00 0.00 82 1012.9
20260901211503 75 71 0.0 3.0 0.00 0.00 0.00 84 1012.9
20260901211003 75 71 0.0 5.0 0.00 0.00 0.00 84 1012.9
20260901210503 75 70 2.0 5.0 0.00 0.00 0.00 84 1012.5
20260901210003 75 64 3.0 5.0 0.00 0.00 0.00 83 1012.1
20260901205503 75 57 3.0 4.0 0.00 0.00 0.00 80 1012.5
20260901205003 75 336 1.0 2.0 0.00 0.00 0.00 79 1013.0
20260901204502 76 337 0.0 0.0 0.00 0.00 0.00 80 1013.4
20260901204003 76 337 0.0 1.0 0.00 0.00 0.00 79 1013.5
20260901203502 76 337 0.0 2.0 0.00 0.00 0.00 77 1013.4
20260901203003 76 336 0.0 2.0 0.00 0.00 0.00 77 1013.1
20260901202503 77 335 0.0 4.0 0.00 0.00 0.00 77 1013.1
20260901202003 77 313 1.0 4.0 0.00 0.00 0.00 76 1013.0
20260901201503 77 356 1.0 5.0 0.00 0.00 0.00 76 1012.9
20260901201003 77 52 2.0 5.0 0.00 0.00 0.00 75 1012.9
20260901200503 77 50 1.0 4.0 0.00 0.00 0.00 76 1012.8
20260901200003 77 24 1.0 5.0 0.00 0.00 0.00 74 1012.8
20260901195503 77 56 2.0 5.0 0.00 0.00 0.00 75 1012.8
20260901195003 77 67 1.0 5.0 0.00 0.00 0.00 76 1012.8
20260901194503 77 60 2.0 5.0 0.00 0.00 0.00 76 1012.7
20260901194003 77 48 1.0 3.0 0.00 0.00 0.00 77 1012.8
20260901193503 76 59 2.0 5.0 0.00 0.00 0.00 78 1012.8
20260901193003 76 65 2.0 5.0 0.00 0.00 0.00 81 1012.9
20260901192503 76 333 1.0 4.0 0.00 0.00 0.00 81 1013.0
20260901192003 76 27 1.0 3.0 0.00 0.00 0.00 79 1013.1
20260901191503 76 42 1.0 3.0 0.00 0.00 0.00 79 1013.0
20260901191002 75 95 0.0 2.0 0.00 0.00 0.00 78 1013.1
20260901190503 76 95 0.0 2.0 0.00 0.00 0.00 77 1013.2
20260901190002 76 95 0.0 3.0 0.00 0.00 0.00 76 1013.0
20260901185503 76 95 1.0 7.0 0.00 0.00 0.00 76 1013.0
20260901185002 76 96 2.0 8.0 0.00 0.00 0.00 75 1013.0
20260901184503 76 98 2.0 8.0 0.00 0.00 0.00 75 1012.8
20260901184003 76 111 3.0 8.0 0.00 0.00 0.00 76 1012.7
20260901183503 76 99 3.0 8.0 0.00 0.00 0.00 75 1012.7
20260901183003 76 101 4.0 8.0 0.00 0.00 0.00 74 1012.7
20260901182503 76 103 4.0 8.0 0.00 0.00 0.00 74 1012.8
20260901182003 76 89 4.0 8.0 0.00 0.00 0.00 75 1012.8
20260901181503 76 82 4.0 7.0 0.00 0.00 0.00 76 1012.9
20260901181003 76 92 4.0 6.0 0.00 0.00 0.00 75 1013.1
20260901180502 75 70 2.0 4.0 0.00 0.00 0.00 76 1013.2
20260901180003 75 60 1.0 3.0 0.00 0.00 0.00 76 1013.3
20260901175502 75 59 2.0 3.0 0.00 0.00 0.00 75 1013.3
20260901175003 75 59 0.0 2.0 0.00 0.00 0.00 75 1013.4
20260901174502 76 59 0.0 4.0 0.00 0.00 0.00 75 1013.5
20260901174003 76 59 2.0 4.0 0.00 0.00 0.00 74 1013.3
20260901173503 76 59 1.0 4.0 0.00 0.00 0.00 74 1013.4
20260901173003 76 59 2.0 6.0 0.00 0.00 0.00 72 1013.4
20260901172503 76 74 1.0 7.0 0.00 0.00 0.00 72 1013.4
20260901172002 76 92 4.0 7.0 0.00 0.00 0.00 72 1013.2
20260901171503 76 97 4.0 7.0 0.00 0.00 0.00 72 1013.0
20260901171002 76 91 4.0 6.0 0.00 0.00 0.00 74 1013.2
20260901170503 76 85 3.0 6.0 0.00 0.00 0.00 74 1013.5
20260901170002 76 51 3.0 6.0 0.00 0.00 0.00 74 1013.7
20260901165503 76 55 3.0 6.0 0.00 0.00 0.00 76 1013.6
20260901165002 76 66 3.0 6.0 0.00 0.00 0.00 77 1013.3
20260901164503 75 68 2.0 5.0 0.00 0.00 0.00 79 1013.4
20260901164003 75 53 1.0 5.0 0.00 0.00 0.00 81 1013.3
20260901163503 75 69 1.0 4.0 0.00 0.00 0.00 81 1013.0
20260901163002 75 70 1.0 3.0 0.00 0.00 0.00 84 1013.2
20260901162503 74 70 1.0 4.0 0.00 0.00 0.00 85 1013.3
20260901162003 74 31 1.0 4.0 0.00 0.00 0.00 86 1013.4
20260901161503 73 98 1.0 3.0 0.00 0.00 0.00 87 1013.7
20260901161003 73 145 1.0 3.0 0.00 0.00 0.00 88 1013.7
20260901160503 73 165 1.0 2.0 0.00 0.00 0.00 88 1014.0
20260901160003 72 165 1.0 3.0 0.00 0.00 0.00 89 1014.1
20260901155503 71 165 1.0 3.0 0.00 0.00 0.00 91 1014.1
20260901155003 71 175 1.0 3.0 0.00 0.00 0.00 92 1014.3
20260901154503 70 232 1.0 2.0 0.00 0.00 0.00 93 1014.3
20260901154002 70 232 1.0 2.0 0.00 0.00 0.00 95 1014.2
20260901153503 69 232 1.0 2.0 0.00 0.00 0.00 96 1014.2
20260901153002 69 233 0.0 0.0 0.00 0.00 0.00 96 1014.1
20260901152503 68 233 0.0 0.0 0.00 0.00 0.00 97 1014.1
20260901152003 68 233 0.0 0.0 0.00 0.00 0.00 97 1014.0
20260901151503 68 233 0.0 1.0 0.00 0.00 0.00 98 1014.1
20260901151003 68 233 0.0 1.0 0.00 0.00 0.00 99 1013.9
20260901150502 67 233 0.0 0.0 0.00 0.00 0.00 99 1013.9
20260901150003 67 233 0.0 0.0 0.00 0.00 0.00 99 1013.8
20260901145502 67 233 0.0 1.0 0.00 0.00 0.00 100 1013.7
20260901145003 67 233 0.0 2.0 0.00 0.00 0.00 100 1013.9
20260901144502 67 232 1.0 2.0 0.00 0.00 0.00 100 1013.9
20260901144003 67 232 0.0 2.0 0.00 0.00 0.00 100 1014.0
20260901143502 67 232 1.0 2.0 0.00 0.00 0.00 100 1014.0
20260901143003 66 232 0.0 2.0 0.00 0.00 0.00 100 1014.0
20260901142503 66 232 0.0 2.0 0.00 0.00 0.00 100 1013.9
20260901142003 66 233 0.0 1.0 0.00 0.00 0.00 100 1014.0
20260901141503 66 232 0.0 1.0 0.00 0.00 0.00 100 1013.9
20260901141003 66 232 0.0 1.0 0.00 0.00 0.00 100 1013.9
20260901140503 65 232 0.0 1.0 0.00 0.00 0.00 100 1013.8
20260901140004 65 233 0.0 1.0 0.00 0.00 0.00 100 1014.0
20260901135503 64 233 0.0 1.0 0.00 0.00 0.00 100 1014.1
20260901135003 64 232 0.0 1.0 0.00 0.00 0.00 100 1014.3
20260901134503 63 233 0.0 0.0 0.00 0.00 0.00 100 1014.2
20260901134002 63 233 0.0 0.0 0.00 0.00 0.00 100 1014.2
20260901133503 63 233 0.0 1.0 0.00 0.00 0.00 100 1014.2
20260901133002 63 232 0.0 1.0 0.00 0.00 0.00 100 1014.3
20260901132503 63 232 0.0 1.0 0.00 0.00 0.00 100 1014.3
20260901132002 62 233 0.0 0.0 0.00 0.00 0.00 100 1014.2
20260901131503 62 233 0.0 1.0 0.00 0.00 0.00 100 1014.2
20260901131003 62 233 0.0 3.0 0.00 0.00 0.00 100 1014.2
20260901130503 62 232 1.0 3.0 0.00 0.00 0.00 100 1014.4
20260901130003 61 102 2.0 2.0 0.00 0.00 0.00 100 1014.5
20260901125503 61 102 0.0 0.0 0.00 0.00 0.00 100 1014.2
20260901125003 61 102 0.0 0.0 0.00 0.00 0.00 100 1014.1
20260901124504 61 102 0.0 0.0 0.00 0.00 0.00 100 1014.1
20260901124003 61 102 0.0 0.0 0.00 0.00 0.00 100 1014.1
20260901123503 60 102 0.0 0.0 0.00 0.00 0.00 100 1014.1
20260901123003 60 102 0.0 0.0 0.00 0.00 0.00 100 1014.0
20260901122502 60 102 0.0 0.0 0.00 0.00 0.00 100 1013.9
20260901122003 60 102 0.0 0.0 0.00 0.00 0.00 100 1014.0
20260901121503 59 102 0.0 0.0 0.00 0.00 0.00 100 1014.1
20260901121003 59 102 0.0 2.0 0.00 0.00 0.00 100 1014.0
20260901120503 59 102 0.0 2.0 0.00 0.00 0.00 100 1013.9
20260901120003 59 102 0.0 2.0 0.00 0.00 0.00 100 1013.8
20260901115503 59 102 0.0 2.0 0.00 0.00 0.00 100 1013.7
20260901115003 59 102 1.0 2.0 0.00 0.00 0.00 100 1013.7
20260901114503 59 102 0.0 4.0 0.00 0.00 0.00 100 1013.8
20260901114002 59 102 0.0 4.0 0.00 0.00 0.00 100 1014.0
20260901113503 59 102 2.0 3.0 0.00 0.00 0.00 100 1014.0
20260901113003 59 102 1.0 5.0 0.00 0.00 0.00 100 1013.8
20260901112503 59 94 2.0 5.0 0.00 0.00 0.00 100 1013.6
20260901112003 59 244 0.0 1.0 0.00 0.00 0.00 100 1013.6
20260901111503 59 245 0.0 0.0 0.00 0.00 0.00 100 1013.3
20260901111003 59 245 0.0 0.0 0.00 0.00 0.00 100 1013.3
20260901110503 59 245 0.0 0.0 0.00 0.00 0.00 100 1013.5
20260901110003 60 245 0.0 0.0 0.00 0.00 0.00 100 1013.4
20260901105503 60 245 0.0 0.0 0.00 0.00 0.00 100 1013.4
20260901105003 60 245 0.0 0.0 0.00 0.00 0.00 100 1013.5
20260901104503 60 245 0.0 0.0 0.00 0.00 0.00 100 1013.4
20260901104003 60 245 0.0 0.0 0.00 0.00 0.00 100 1013.2
20260901103502 60 245 0.0 0.0 0.00 0.00 0.00 100 1013.3
20260901103003 60 245 0.0 0.0 0.00 0.00 0.00 100 1013.2
20260901102502 60 245 0.0 0.0 0.00 0.00 0.00 100 1013.2
20260901102003 60 245 0.0 0.0 0.00 0.00 0.00 100 1013.1
20260901101503 60 245 0.0 0.0 0.00 0.00 0.00 100 1013.1
20260901101003 60 245 0.0 0.0 0.00 0.00 0.00 100 1013.1
20260901100503 60 245 0.0 0.0 0.00 0.00 0.00 100 1013.2
20260901100003 60 245 0.0 1.0 0.00 0.00 0.00 100 1013.1
20260901095503 60 244 0.0 2.0 0.00 0.00 0.00 100 1013.0
20260901095002 61 245 0.0 4.0 0.00 0.00 0.00 100 1012.9
20260901094503 61 198 1.0 4.0 0.00 0.00 0.00 100 1012.9
20260901094002 61 360 0.0 0.0 0.00 0.00 0.00 100 1012.8
20260901093503 61 360 0.0 0.0 0.00 0.00 0.00 100 1012.7
20260901093003 61 360 0.0 0.0 0.00 0.00 0.00 100 1012.7
20260901092503 61 360 0.0 0.0 0.00 0.00 0.00 100 1012.5
20260901092003 61 360 0.0 0.0 0.00 0.00 0.00 100 1012.6
20260901091503 62 360 0.0 0.0 0.00 0.00 0.00 100 1012.7
20260901091003 62 360 0.0 0.0 0.00 0.00 0.00 100 1012.7
20260901090503 62 360 0.0 0.0 0.00 0.00 0.00 100 1012.6
20260901090003 62 360 0.0 0.0 0.00 0.00 0.00 100 1012.6
20260901085503 62 360 0.0 0.0 0.00 0.00 0.00 100 1012.7
20260901085003 62 360 0.0 0.0 0.00 0.00 0.00 100 1012.5
20260901084502 62 360 0.0 0.0 0.00 0.00 0.00 100 1012.6
20260901084003 62 360 0.0 0.0 0.00 0.00 0.00 100 1012.6
20260901083502 62 360 0.0 0.0 0.00 0.00 0.00 100 1012.6
20260901083003 62 360 0.0 0.0 0.00 0.00 0.00 100 1012.5
20260901082502 62 360 0.0 0.0 0.00 0.00 0.00 100 1012.5
20260901082003 62 360 0.0 0.0 0.00 0.00 0.00 100 1012.6
20260901081502 62 360 0.0 0.0 0.00 0.00 0.00 100 1012.8
20260901081003 62 360 0.0 0.0 0.00 0.00 0.00 100 1012.7
20260901080502 62 360 0.0 0.0 0.00 0.00 0.00 100 1012.9
20260901080003 63 360 0.0 2.0 0.00 0.00 0.00 100 1012.7
20260901075503 63 360 0.0 2.0 0.00 0.00 0.00 100 1012.8
20260901075003 63 320 0.0 0.0 0.00 0.00 0.00 100 1012.9
20260901074503 63 320 0.0 0.0 0.00 0.00 0.00 100 1012.9
20260901074003 63 320 0.0 0.0 0.00 0.00 0.00 100 1012.9
20260901073503 63 320 0.0 0.0 0.00 0.00 0.00 100 1012.8
20260901073003 63 320 0.0 0.0 0.00 0.00 0.00 100 1012.8
20260901072503 63 320 0.0 0.0 0.00 0.00 0.00 100 1012.8
20260901072003 63 320 0.0 0.0 0.00 0.00 0.00 100 1012.9
20260901071503 63 320 0.0 3.0 0.00 0.00 0.00 100 1012.9
20260901071002 64 320 0.0 3.0 0.00 0.00 0.00 100 1012.9
20260901070503 64 319 0.0 1.0 0.00 0.00 0.00 100 1013.0
20260901070002 64 320 0.0 0.0 0.00 0.00 0.00 100 1013.1
20260901065503 64 320 0.0 0.0 0.00 0.00 0.00 100 1013.2
20260901065002 64 320 0.0 0.0 0.00 0.00 0.00 100 1013.3
20260901064503 65 320 0.0 0.0 0.00 0.00 0.00 100 1013.2
20260901064003 65 320 0.0 0.0 0.00 0.00 0.00 100 1013.3
20260901063503 65 320 0.0 0.0 0.00 0.00 0.00 100 1013.3
20260901063002 65 320 0.0 0.0 0.00 0.00 0.00 100 1013.5
20260901062503 65 320 0.0 0.0 0.00 0.00 0.00 100 1013.4
20260901062003 65 320 0.0 0.0 0.00 0.00 0.00 100 1013.4
20260901061503 66 320 0.0 0.0 0.00 0.00 0.00 100 1013.4
20260901061003 66 320 0.0 0.0 0.00 0.00 0.00 100 1013.4
20260901060503 66 320 0.0 0.0 0.00 0.00 0.00 100 1013.5
20260901060002 66 320 0.0 0.0 0.00 0.00 0.00 100 1013.6
20260901055503 66 320 0.0 0.0 0.00 0.00 0.00 100 1013.7
20260901055003 66 320 0.0 0.0 0.00 0.00 0.00 100 1013.7
20260901054504 66 320 0.0 0.0 0.00 0.00 0.00 100 1013.7
20260901054003 66 320 0.0 0.0 0.00 0.00 0.00 100 1013.6
20260901053502 66 320 0.0 0.0 0.00 0.00 0.00 100 1013.7
20260901053003 66 320 0.0 0.0 0.00 0.00 0.00 100 1013.8
20260901052502 66 320 0.0 0.0 0.00 0.00 0.00 100 1013.7
20260901052004 66 320 0.0 0.0 0.00 0.00 0.00 100 1013.7
20260901051502 66 320 0.0 1.0 0.00 0.00 0.00 100 1013.7
20260901051003 66 320 0.0 1.0 0.00 0.00 0.00 100 1013.7
20260901050502 66 320 0.0 0.0 0.00 0.00 0.00 100 1013.6
20260901050003 66 320 0.0 0.0 0.00 0.00 0.00 100 1013.7
20260901045503 66 320 0.0 0.0 0.00 0.00 0.00 100 1013.5
20260901045003 66 320 0.0 1.0 0.00 0.00 0.00 100 1013.4
20260901044505 66 320 0.0 1.0 0.00 0.00 0.00 100 1013.3
20260901044003 67 320 0.0 0.0 0.00 0.00 0.00 100 1013.4
20260901043503 67 320 0.0 0.0 0.00 0.00 0.00 100 1013.2
20260901043003 67 320 0.0 0.0 0.00 0.00 0.00 100 1013.2
20260901042503 67 320 0.0 0.0 0.00 0.00 0.00 100 1013.2
20260901042003 68 320 0.0 0.0 0.00 0.00 0.00 100 1013.2
20260901041503 68 320 0.0 0.0 0.00 0.00 0.00 100 1013.1
20260901041003 68 320 0.0 0.0 0.00 0.00 0.00 99 1013.1
20260901040503 68 320 0.0 0.0 0.00 0.00 0.00 99 1013.1
20260901040002 68 320 0.0 0.0 0.00 0.00 0.00 98 1013.0
20260901035503 69 320 0.0 0.0 0.00 0.00 0.00 98 1013.0
20260901035003 69 320 0.0 0.0 0.00 0.00 0.00 98 1013.0
20260901034503 69 320 0.0 1.0 0.00 0.00 0.00 97 1012.9
20260901034003 69 319 0.0 1.0 0.00 0.00 0.00 97 1013.1
20260901033503 69 320 0.0 0.0 0.00 0.00 0.00 97 1013.1
20260901033003 69 320 0.0 0.0 0.00 0.00 0.00 96 1013.1
20260901032503 69 320 0.0 0.0 0.00 0.00 0.00 96 1012.9
20260901032002 69 320 0.0 0.0 0.00 0.00 0.00 96 1012.9